Time,TemperatureF,DewpointF,PressureIn,WindDirection,WindDirectionDegrees,WindSpeedMPH,WindSpeedGustMPH,Humidity,HourlyPrecipIn,Conditions,Clouds,dailyrainin,SoftwareType,DateUTC
2013-11-22 00:00:00,38.5,29.2,30.33,SW,225,2.2,-999.0,69,-99.99,,,0.00,Acu-Link.com,2013-11-22 05:00:00,
2013-11-22 00:15:00,39.0,30.1,30.32,SSE,157,1.7,-999.0,70,-99.99,,,0.00,Acu-Link.com,2013-11-22 05:15:00,
2013-11-22 00:31:00,39.0,30.1,30.32,SW,225,0.0,-999.0,70,-99.99,,,0.00,Acu-Link.com,2013-11-22 05:31:00,
2013-11-22 00:46:00,39.0,30.1,30.31,SW,225,1.1,-999.0,70,-99.99,,,0.00,Acu-Link.com,2013-11-22 05:46:00,
2013-11-22 01:01:00,39.2,30.6,30.31,ESE,112,1.7,-999.0,71,-99.99,,,0.00,Acu-Link.com,2013-11-22 06:01:00,
2013-11-22 01:16:00,39.2,30.9,30.31,WNW,292,0.0,-999.0,72,-99.99,,,0.00,Acu-Link.com,2013-11-22 06:16:00,
2013-11-22 01:31:00,39.2,31.3,30.30,SW,225,1.7,-999.0,73,-99.99,,,0.00,Acu-Link.com,2013-11-22 06:31:00,
2013-11-22 01:47:00,39.4,31.5,30.30,SSW,202,1.1,-999.0,73,-99.99,,,0.00,Acu-Link.com,2013-11-22 06:47:00,
2013-11-22 02:02:00,39.6,32.0,30.30,SSW,202,2.7,-999.0,74,-99.99,,,0.00,Acu-Link.com,2013-11-22 07:02:00,
2013-11-22 02:17:00,39.9,32.3,30.30,SW,225,2.7,-999.0,74,-99.99,,,0.00,Acu-Link.com,2013-11-22 07:17:00,
2013-11-22 02:32:00,39.9,32.6,30.30,SW,225,0.0,-999.0,75,-99.99,,,0.00,Acu-Link.com,2013-11-22 07:32:00,
2013-11-22 02:47:00,39.9,33.0,30.28,SSE,157,0.0,-999.0,76,-99.99,,,0.00,Acu-Link.com,2013-11-22 07:47:00,
2013-11-22 03:03:00,39.9,33.0,30.29,NNW,337,0.0,-999.0,76,-99.99,,,0.00,Acu-Link.com,2013-11-22 08:03:00,
2013-11-22 03:18:00,39.7,33.1,30.28,South,180,0.0,-999.0,77,-99.99,,,0.00,Acu-Link.com,2013-11-22 08:18:00,
2013-11-22 03:33:00,39.9,33.6,30.27,SSE,157,1.1,-999.0,78,-99.99,,,0.00,Acu-Link.com,2013-11-22 08:33:00,
2013-11-22 03:48:00,39.9,33.9,30.27,SSW,202,0.0,-999.0,79,-99.99,,,0.00,Acu-Link.com,2013-11-22 08:48:00,
2013-11-22 04:03:00,39.7,34.0,30.26,SSE,157,1.1,-999.0,80,-99.99,,,0.00,Acu-Link.com,2013-11-22 09:03:00,
2013-11-22 04:18:00,39.7,34.0,30.26,NNE,22,0.0,-999.0,80,-99.99,,,0.00,Acu-Link.com,2013-11-22 09:18:00,
2013-11-22 04:33:00,39.6,33.9,30.25,ESE,112,0.0,-999.0,80,-99.99,,,0.00,Acu-Link.com,2013-11-22 09:33:00,
2013-11-22 04:49:00,39.7,34.7,30.24,SSW,202,0.0,-999.0,82,-99.99,,,0.00,Acu-Link.com,2013-11-22 09:49:00,
2013-11-22 05:04:00,39.7,34.4,30.23,NW,315,0.0,-999.0,81,-99.99,,,0.00,Acu-Link.com,2013-11-22 10:04:00,
2013-11-22 05:19:00,39.9,34.9,30.22,North,0,0.0,-999.0,82,-99.99,,,0.00,Acu-Link.com,2013-11-22 10:19:00,
2013-11-22 05:34:00,39.9,35.5,30.22,ESE,112,0.0,-999.0,84,-99.99,,,0.00,Acu-Link.com,2013-11-22 10:34:00,
2013-11-22 05:49:00,39.9,36.4,30.21,SSE,157,0.0,-999.0,87,-99.99,,,0.00,Acu-Link.com,2013-11-22 10:49:00,
2013-11-22 06:04:00,39.7,36.4,30.21,ESE,112,0.0,-999.0,88,-99.99,,,0.01,Acu-Link.com,2013-11-22 11:04:00,
2013-11-22 06:19:00,39.7,36.7,30.20,NE,45,0.0,-999.0,89,-99.99,,,0.01,Acu-Link.com,2013-11-22 11:19:00,
2013-11-22 06:34:00,39.4,36.4,30.21,SW,225,0.0,-999.0,89,-99.99,,,0.03,Acu-Link.com,2013-11-22 11:34:00,
2013-11-22 06:50:00,39.4,36.7,30.21,SSW,202,0.0,-999.0,90,-99.99,,,0.03,Acu-Link.com,2013-11-22 11:50:00,
2013-11-22 07:05:00,39.2,36.8,30.20,ESE,112,0.0,-999.0,91,-99.99,,,0.04,Acu-Link.com,2013-11-22 12:05:00,
2013-11-22 07:20:00,39.2,36.8,30.19,East,90,0.0,-999.0,91,-99.99,,,0.04,Acu-Link.com,2013-11-22 12:20:00,
2013-11-22 07:35:00,39.2,36.8,30.19,NNE,22,0.0,-999.0,91,-99.99,,,0.05,Acu-Link.com,2013-11-22 12:35:00,
2013-11-22 07:51:00,39.2,36.8,30.18,ENE,67,0.0,-999.0,91,-99.99,,,0.06,Acu-Link.com,2013-11-22 12:51:00,
2013-11-22 08:06:00,39.6,37.2,30.17,NNW,337,0.0,-999.0,91,-99.99,,,0.06,Acu-Link.com,2013-11-22 13:06:00,
2013-11-22 08:21:00,39.7,37.3,30.17,ESE,112,0.0,-999.0,91,-99.99,,,0.07,Acu-Link.com,2013-11-22 13:21:00,
2013-11-22 08:36:00,40.3,38.2,30.16,ENE,67,0.0,-999.0,92,-99.99,,,0.07,Acu-Link.com,2013-11-22 13:36:00,
2013-11-22 08:51:00,40.6,38.5,30.15,NE,45,0.0,-999.0,92,-99.99,,,0.08,Acu-Link.com,2013-11-22 13:51:00,
2013-11-22 09:06:00,41.0,38.9,30.14,NNE,22,0.0,-999.0,92,-99.99,,,0.09,Acu-Link.com,2013-11-22 14:06:00,
2013-11-22 09:21:00,41.4,39.3,30.14,SE,135,0.0,-999.0,92,-99.99,,,0.10,Acu-Link.com,2013-11-22 14:21:00,
2013-11-22 09:36:00,41.2,39.1,30.13,ENE,67,0.0,-999.0,92,-99.99,,,0.11,Acu-Link.com,2013-11-22 14:36:00,
2013-11-22 09:52:00,41.4,39.3,30.13,WSW,247,0.0,-999.0,92,-99.99,,,0.13,Acu-Link.com,2013-11-22 14:52:00,
2013-11-22 10:07:00,41.4,39.3,30.12,South,180,0.0,-999.0,92,-99.99,,,0.13,Acu-Link.com,2013-11-22 15:07:00,
2013-11-22 10:22:00,41.2,39.1,30.11,East,90,1.1,-999.0,92,-99.99,,,0.15,Acu-Link.com,2013-11-22 15:22:00,
2013-11-22 10:37:00,41.2,39.1,30.10,ENE,67,1.7,-999.0,92,-99.99,,,0.19,Acu-Link.com,2013-11-22 15:37:00,
2013-11-22 10:53:00,41.4,39.3,30.09,ENE,67,0.0,-999.0,92,-99.99,,,0.20,Acu-Link.com,2013-11-22 15:53:00,
2013-11-22 11:08:00,41.7,39.6,30.07,West,270,0.0,-999.0,92,-99.99,,,0.21,Acu-Link.com,2013-11-22 16:08:00,
2013-11-22 11:23:00,41.5,39.6,30.07,NNE,22,0.0,-999.0,93,-99.99,,,0.22,Acu-Link.com,2013-11-22 16:23:00,
2013-11-22 11:38:00,41.9,40.0,30.06,NNE,22,0.0,-999.0,93,-99.99,,,0.23,Acu-Link.com,2013-11-22 16:38:00,
2013-11-22 11:53:00,41.9,40.0,30.04,NE,45,0.0,-999.0,93,-99.99,,,0.24,Acu-Link.com,2013-11-22 16:53:00,
2013-11-22 12:08:00,42.1,40.2,30.04,North,0,0.0,-999.0,93,-99.99,,,0.24,Acu-Link.com,2013-11-22 17:08:00,
2013-11-22 12:23:00,42.3,40.4,30.02,NNW,337,0.0,-999.0,93,-99.99,,,0.25,Acu-Link.com,2013-11-22 17:23:00,
2013-11-22 12:38:00,42.3,40.4,30.01,NE,45,0.0,-999.0,93,-99.99,,,0.25,Acu-Link.com,2013-11-22 17:38:00,
2013-11-22 12:54:00,42.4,40.5,29.99,NNW,337,0.0,-999.0,93,-99.99,,,0.25,Acu-Link.com,2013-11-22 17:54:00,
2013-11-22 13:09:00,42.4,40.5,29.98,NNW,337,0.0,-999.0,93,-99.99,,,0.25,Acu-Link.com,2013-11-22 18:09:00,
2013-11-22 13:24:00,42.6,40.7,29.98,North,0,0.0,-999.0,93,-99.99,,,0.25,Acu-Link.com,2013-11-22 18:24:00,
2013-11-22 13:39:00,42.6,40.7,29.96,NNW,337,0.0,-999.0,93,-99.99,,,0.25,Acu-Link.com,2013-11-22 18:39:00,
2013-11-22 13:54:00,42.6,40.7,29.96,NNW,337,1.1,-999.0,93,-99.99,,,0.25,Acu-Link.com,2013-11-22 18:54:00,
2013-11-22 14:09:00,42.4,40.5,29.98,West,270,0.0,-999.0,93,-99.99,,,0.25,Acu-Link.com,2013-11-22 19:09:00,
2013-11-22 14:24:00,42.3,40.7,29.96,NW,315,2.2,-999.0,94,-99.99,,,0.25,Acu-Link.com,2013-11-22 19:24:00,
2013-11-22 14:40:00,42.3,40.7,29.95,NW,315,0.0,-999.0,94,-99.99,,,0.25,Acu-Link.com,2013-11-22 19:40:00,
2013-11-22 14:55:00,42.4,40.8,29.95,NW,315,0.0,-999.0,94,-99.99,,,0.25,Acu-Link.com,2013-11-22 19:55:00,
2013-11-22 15:10:00,42.4,40.8,29.95,NW,315,0.0,-999.0,94,-99.99,,,0.25,Acu-Link.com,2013-11-22 20:10:00,
2013-11-22 15:25:00,42.3,40.7,29.94,NNW,337,0.0,-999.0,94,-99.99,,,0.25,Acu-Link.com,2013-11-22 20:25:00,
2013-11-22 15:41:00,42.1,40.5,29.94,WNW,292,2.2,-999.0,94,-99.99,,,0.25,Acu-Link.com,2013-11-22 20:41:00,
2013-11-22 15:56:00,41.9,40.3,29.94,NNW,337,0.0,-999.0,94,-99.99,,,0.25,Acu-Link.com,2013-11-22 20:56:00,
2013-11-22 16:11:00,41.9,40.3,29.92,East,90,0.0,-999.0,94,-99.99,,,0.25,Acu-Link.com,2013-11-22 21:11:00,
2013-11-22 16:26:00,41.7,40.1,29.92,NNW,337,0.0,-999.0,94,-99.99,,,0.25,Acu-Link.com,2013-11-22 21:26:00,
2013-11-22 16:41:00,41.5,39.9,29.93,WNW,292,0.0,-999.0,94,-99.99,,,0.25,Acu-Link.com,2013-11-22 21:41:00,
2013-11-22 16:57:00,41.5,39.9,29.93,NW,315,0.0,-999.0,94,-99.99,,,0.25,Acu-Link.com,2013-11-22 21:57:00,
2013-11-22 17:12:00,41.4,40.1,29.93,NW,315,1.7,-999.0,95,-99.99,,,0.25,Acu-Link.com,2013-11-22 22:12:00,
2013-11-22 17:27:00,41.4,40.1,29.91,NNE,22,1.1,-999.0,95,-99.99,,,0.25,Acu-Link.com,2013-11-22 22:27:00,
2013-11-22 17:42:00,41.2,39.9,29.90,NNW,337,0.0,-999.0,95,-99.99,,,0.25,Acu-Link.com,2013-11-22 22:42:00,
2013-11-22 17:57:00,41.2,39.9,29.89,NNW,337,0.0,-999.0,95,-99.99,,,0.25,Acu-Link.com,2013-11-22 22:57:00,
2013-11-22 18:12:00,41.2,39.9,29.88,NNW,337,0.0,-999.0,95,-99.99,,,0.25,Acu-Link.com,2013-11-22 23:12:00,
2013-11-22 18:28:00,41.2,39.9,29.88,WNW,292,0.0,-999.0,95,-99.99,,,0.25,Acu-Link.com,2013-11-22 23:28:00,
2013-11-22 18:43:00,41.2,39.9,29.87,SSE,157,0.0,-999.0,95,-99.99,,,0.25,Acu-Link.com,2013-11-22 23:43:00,
2013-11-22 18:58:00,41.2,39.9,29.88,WSW,247,0.0,-999.0,95,-99.99,,,0.25,Acu-Link.com,2013-11-22 23:58:00,
2013-11-22 19:13:00,41.2,39.9,29.88,NW,315,0.0,-999.0,95,-99.99,,,0.25,Acu-Link.com,2013-11-23 00:13:00,
2013-11-22 19:28:00,41.2,39.9,29.86,SW,225,0.0,-999.0,95,-99.99,,,0.25,Acu-Link.com,2013-11-23 00:28:00,
2013-11-22 19:43:00,41.2,39.9,29.85,SW,225,2.2,-999.0,95,-99.99,,,0.25,Acu-Link.com,2013-11-23 00:43:00,
2013-11-22 19:58:00,41.0,39.7,29.85,South,180,0.0,-999.0,95,-99.99,,,0.25,Acu-Link.com,2013-11-23 00:58:00,
2013-11-22 20:13:00,41.0,39.7,29.84,SW,225,3.2,-999.0,95,-99.99,,,0.25,Acu-Link.com,2013-11-23 01:13:00,
2013-11-22 20:28:00,41.0,39.7,29.84,West,270,0.0,-999.0,95,-99.99,,,0.25,Acu-Link.com,2013-11-23 01:28:00,
2013-11-22 20:43:00,41.0,39.7,29.84,West,270,1.1,-999.0,95,-99.99,,,0.25,Acu-Link.com,2013-11-23 01:43:00,
2013-11-22 20:59:00,40.8,39.5,29.83,SSW,202,1.7,-999.0,95,-99.99,,,0.25,Acu-Link.com,2013-11-23 01:59:00,
2013-11-22 21:14:00,41.0,39.7,29.81,East,90,0.0,-999.0,95,-99.99,,,0.25,Acu-Link.com,2013-11-23 02:14:00,
2013-11-22 21:29:00,41.0,39.7,29.81,West,270,0.0,-999.0,95,-99.99,,,0.25,Acu-Link.com,2013-11-23 02:29:00,
2013-11-22 21:44:00,41.0,39.7,29.80,SW,225,0.0,-999.0,95,-99.99,,,0.25,Acu-Link.com,2013-11-23 02:44:00,
2013-11-22 21:59:00,40.8,39.5,29.81,SW,225,0.0,-999.0,95,-99.99,,,0.25,Acu-Link.com,2013-11-23 02:59:00,
2013-11-22 22:15:00,40.8,39.5,29.80,WSW,247,0.0,-999.0,95,-99.99,,,0.25,Acu-Link.com,2013-11-23 03:15:00,
2013-11-22 22:30:00,40.8,39.5,29.80,SW,225,0.0,-999.0,95,-99.99,,,0.25,Acu-Link.com,2013-11-23 03:30:00,
2013-11-22 22:45:00,40.8,39.5,29.80,West,270,0.0,-999.0,95,-99.99,,,0.25,Acu-Link.com,2013-11-23 03:45:00,
2013-11-22 23:00:00,41.2,39.9,29.78,SSE,157,0.0,-999.0,95,-99.99,,,0.25,Acu-Link.com,2013-11-23 04:00:00,
2013-11-22 23:15:00,41.2,39.9,29.77,SE,135,1.7,-999.0,95,-99.99,,,0.25,Acu-Link.com,2013-11-23 04:15:00,
2013-11-22 23:30:00,41.4,40.3,29.78,NW,315,0.0,-999.0,96,-99.99,,,0.25,Acu-Link.com,2013-11-23 04:30:00,
2013-11-22 23:45:00,41.7,40.6,29.76,WSW,247,1.7,-999.0,96,-99.99,,,0.25,Acu-Link.com,2013-11-23 04:45:00,